#timestamp,LO_Frequency,Hit,StdDev 
1552413615.1,286047000.1,N
1552413635.8,286047000.4,N
1552413655.7,286046998.6,N
1552413675.5,286046998.1,N
1552413695.4,286046998.4,N
1552413715.2,286046996.5,N
1552413735.0,286046997.5,N
1552413735.9,286046997.5,N
1552413755.8,286046997.6,N
1552413775.6,286046999.5,N
1552413795.4,286046999.2,N
1552413815.3,286046999.3,N
1552413835.1,286046998.7,N
1552413855.9,286046998.7,N
1552413875.7,286047000.5,N
1552413895.5,286047000.6,N
1552413915.4,286047000.4,N
1552413935.2,286047000.8,N
1552413955.0,286047000.3,N
1552413955.9,286047000.3,N
1552413975.8,286047001.1,N
1552413995.6,286047000.0,N
1552414015.5,286047001.5,N
1552414035.3,286046999.7,N
1552414055.1,286047002.4,N
1552414075.9,286047000.2,N
1552414095.7,286047002.5,N
1552414115.5,286047004.2,N
1552414135.4,286047001.3,N
1552414155.2,286047000.0,N
1552414175.0,286047002.3,N
1552414176.0,286047002.3,N
1552414195.8,286047000.4,N
1552414215.6,286047000.3,N
1552414235.5,286047000.2,N
1552414255.3,286047002.6,N
1552414275.1,286046999.7,N
1552414295.9,286047002.0,N
1552414315.7,286047001.5,N
1552414335.5,286047001.9,N
1552414355.4,286047000.2,N
1552414375.2,286047002.1,N
1552414395.1,286047000.1,N
1552414396.0,286047000.1,N
1552414415.8,286047000.5,N
1552414435.6,286047002.4,N
1552414455.5,286046999.7,N
1552414475.3,286047001.6,N
1552414495.1,286047002.0,N
1552414515.9,286047003.1,N
1552414535.7,286047003.2,N
1552414555.6,286047001.8,N
1552414575.4,286047003.8,Y
1552414595.2,286046999.7,P
1552414615.1,286047000.1,N
1552414616.0,286047000.1,N
1552414635.8,286047002.4,Y
1552414655.7,286047000.2,P
1552414675.5,286047000.4,P
1552414695.3,286046998.4,P
1552414715.2,286047001.0,N
1552414735.0,286047000.4,N
1552414735.9,286047000.4,N
1552414755.7,286047000.6,N
1552414775.6,286047000.5,N
1552414795.4,286046998.1,N
1552414815.3,286046999.4,N
1552414835.1,286047000.9,N
1552414836.0,286047000.9,N
1552414855.8,286047001.2,N
1552414875.7,286046998.1,N
1552414895.5,286047001.2,N
1552414915.3,286047000.9,N
1552414935.2,286046998.2,N
1552414955.0,286047000.4,N
1552414955.9,286047000.4,N
1552414975.8,286046999.9,N
1552414995.6,286046998.3,N
1552415015.4,286047001.0,N
1552415035.3,286047001.1,N
1552415055.1,286046999.5,N
1552415075.8,286046998.7,N
1552415095.7,286046998.2,N
1552415115.5,286046998.8,N
1552415135.4,286046998.6,N
1552415155.2,286047001.1,N
1552415175.0,286047000.3,N
1552415175.9,286047000.3,N
1552415195.8,286047000.7,N
1552415245.6,286046999.7,E
1552415255.6,286047000.2,N
1552415275.4,286047002.1,P
1552415295.2,286047002.6,N
1552415315.1,286047002.5,N
1552415316.0,286047002.5,N
1552415335.8,286047001.6,N
1552415355.7,286047002.2,N
1552415375.5,286047002.1,N
1552415395.3,286047002.3,Y
1552415415.2,286047001.1,P
1552415435.0,286046999.6,N
1552415435.9,286046999.6,N
1552415455.7,286046996.9,Y
1552415475.6,286046997.2,P
1552415495.4,286046996.5,N
1552415515.3,286046999.3,N
1552415535.1,286046997.3,N
1552415536.0,286046997.3,N
1552415555.8,286046997.1,N
1552415575.7,286046999.4,N
1552415595.5,286046996.8,N
1552415615.3,286046999.0,N
1552415635.2,286046998.3,N
1552415655.0,286047001.1,N
1552415655.9,286047001.1,N
1552415675.8,286047000.6,N
1552415695.6,286046998.1,N
1552415715.4,286046998.3,N
1552415735.3,286046999.0,N
1552415755.1,286046999.6,N
1552415775.8,286046997.2,N
1552415795.7,286046997.2,N
1552415815.5,286046997.2,N
1552415835.4,286046999.2,N
1552415855.2,286046999.1,N
1552415875.0,286046999.1,N
1552415875.9,286046999.1,N
1552415895.8,286047001.2,N
1552415915.6,286047000.6,N
1552415935.5,286046998.1,N
1552415955.3,286046999.3,N
1552415975.1,286046998.4,N
1552415995.9,286046999.2,N
1552416015.7,286046999.5,N
1552416035.5,286046999.0,N
1552416055.4,286046999.2,N
1552416075.2,286046999.5,N
1552416095.1,286046999.1,N
1552416115.2,286046996.9,N
1552416135.0,286046998.7,N
1552416135.9,286046998.7,N
1552416155.8,286046998.4,N
1552416175.6,286046998.6,N
1552416195.4,286046998.1,N
1552416215.3,286046997.0,N
1552416235.1,286046999.1,N
1552416255.9,286046998.4,N
1552416275.7,286046999.4,N
1552416295.5,286046999.0,N
1552416315.4,286046997.0,Y
1552416335.2,286046998.5,P
1552416355.0,286046999.3,P
1552416355.9,286046999.3,N
1552416375.8,286046998.7,Y
1552416395.6,286047000.7,P
1552416415.5,286047000.0,N
1552416435.3,286046999.8,N
1552416455.1,286047001.7,N
1552416475.9,286046999.7,N
1552416495.7,286047001.9,N
1552416515.5,286047001.2,N
1552416535.4,286047001.2,N
1552416555.2,286046998.2,N
1552416575.1,286047000.4,N
1552416576.0,286047000.4,N
1552416595.8,286047002.3,N
1552416615.6,286047002.3,N
1552416635.5,286046999.9,N
1552416655.3,286046999.7,N
1552416675.1,286047001.2,N
1552416695.9,286047000.4,N
1552416715.7,286046998.2,N
1552416735.6,286047000.2,N
1552416755.4,286047002.6,N
1552416775.2,286047001.8,N
1552416795.1,286047001.8,N
1552416796.0,286047001.8,N
1552416815.8,286047001.7,N
1552416835.6,286047002.6,N
1552416855.5,286047001.7,N
1552416875.3,286047002.0,N
1552416895.2,286047004.3,Y
1552416915.9,286047004.2,P
1552416935.7,286047004.0,N
1552416955.6,286047003.2,N
1552416975.4,286047003.7,N
1552416995.2,286047004.2,Y
1552417015.1,286046998.7,P
1552417016.0,286046998.7,N
1552417035.8,286047000.3,N
1552417055.7,286047000.4,N
1552417075.5,286046998.8,N
1552417095.3,286046997.0,N
1552417115.2,286046997.3,N
1552417135.0,286046996.5,N
1552417135.9,286046996.5,N
1552417155.7,286046998.3,N
1552417175.6,286046998.9,N
1552417195.4,286046999.5,N
